NOAA-19
1 33591U 09005A 09365.09124009 -.00000006 00000-0 20554-4 0 3815
2 33591 098.7710 305.9458 0014877 047.7258 312.5149 14.11013667 46206
HUBBLE
1 20580U 90037B 09365.14879106 .00000353 00000-0 14235-4 0 4965
2 20580 028.4713 256.7658 0003382 213.8468 146.1910 15.00873205879477
ISS
1 25544U 98067A 10001.03465100 .00008979 00000-0 57784-4 0 2835
2 25544 051.6468 009.6669 0007899 132.8806 323.0995 15.77080624637130
CO-58
1 28895U 05043F 09364.64643636 .00000327 00000-0 77618-4 0 04770
2 28895 098.0364 249.4756 0018906 093.8290 266.5132 14.59830682222395
FALCON
1 30776U 07006E 09364.35076221 .00000481 00000-0 37671-4 0 07465
2 30776 035.4348 349.1235 0000529 227.6993 132.3678 15.03410163154636
MAST
1 31126U 07012K 09364.77760074 .00000103 00000-0 33653-4 0 07663
2 31126 097.9634 050.2933 0095151 030.2370 330.4288 14.53542615143597
CAPE1
1 31130U 07012P 09365.69888914 .00000120 00000-0 38145-4 0 7800
2 31130 097.9631 048.9196 0103332 033.9260 326.8474 14.52120368143359
COMPASS
1 32787U 08021E 09364.21737937 .00000511 00000-0 71367-4 0 05585
2 32787 097.9183 066.1305 0016940 114.6733 245.6255 14.81726149090474
AAUSAT2
1 32788U 08021F 09365.72164977 -.00000216 00000-0 -20534-4 0 5507
2 32788 097.9177 067.7094 0016335 109.8342 250.4633 14.81854926 90705
DO-64
1 32789U 08021G 09365.87631849 .00000449 00000-0 63371-4 0 5671
2 32789 097.9236 068.1711 0016710 108.4571 251.8488 14.81907352 90726
CO-66
1 32791U 08021J 09364.21629805 .00000335 00000-0 49421-4 0 05461
2 32791 097.9186 066.1584 0016973 111.3393 248.9676 14.81536965090437
RS-30
1 32953U 08025A 09364.74535546 .00000010 00000-0 00000 0 0 4881
2 32953 082.5022 134.4184 0019736 109.9321 250.3887 12.43003216 72812
TACSAT-3
1 35001U 09028A 09364.85883741 .00003096 00000-0 81265-4 0 01934
2 35001 040.4544 143.7890 0022442 188.7667 171.2757 15.39882732034668
PHARMSAT
1 35002U 09028B 09364.81459203 .00003110 00000-0 79614-4 0 1722
2 35002 040.4674 142.7862 0025404 192.4719 167.5470 15.40582584 34666
HAWKSAT1
1 35003U 09028C 09364.76882664 .00006274 00000-0 14794-3 0 01909
2 35003 040.4610 141.3592 0025013 198.1058 161.8868 15.41908647034680
CP6
1 35004U 09028D 09364.75791109 .00007309 00000-0 17015-3 0 1721
2 35004 040.4609 141.2846 0024204 198.3134 161.6815 15.42149128 34679
AEROCUB3
1 35005U 09028E 09364.78683145 .00013122 00000-0 30112-3 0 1784
2 35005 040.4720 141.7562 0023853 195.7055 164.3023 15.42121926 34673
DRAGNSAT
1 35690U 09038B 09365.43509443 .00053127 12242-4 16692-3 0 1631
2 35690 051.6371 001.0839 0003544 004.5183 355.5886 15.91903095 24419
POLLUX
1 35693U 09038E 09365.33495068 .00049614 00000-0 16181-3 0 1667
2 35693 051.6382 002.6913 0000645 357.5440 002.5183 15.90152568 24352
CASTOR
1 35694U 09038F 09365.34632482 .00018984 00000-0 82797-4 0 1452
2 35694 051.6412 005.0943 0001792 261.3449 098.7189 15.84793086 24321
METEOR-M
1 35865U 09049A 09364.80516855 .00000176 00000-0 10000-3 0 909
2 35865 098.7849 054.6077 0002978 119.0704 241.0704 14.21828349 14792
